Time,TemperatureF,DewpointF,PressureIn,WindDirection,WindDirectionDegrees,WindSpeedMPH,WindSpeedGustMPH,Humidity,HourlyPrecipIn,Conditions,Clouds,dailyrainin,SolarRadiationWatts/m^2,SoftwareType,DateUTC
2013-08-14 00:03:00,46.9,43.8,30.19,ENE,74,0.0,0.0,89,0.00,,BKN,0.00,0.00,VWS V14.01,2013-08-14 05:03:00,
2013-08-14 00:08:00,46.9,43.8,30.19,ENE,74,0.0,0.0,89,0.00,,BKN,0.00,0.00,VWS V14.01,2013-08-14 05:08:00,
2013-08-14 00:13:00,46.9,43.8,30.20,ENE,74,0.0,0.0,89,0.00,,BKN,0.00,0.00,VWS V14.01,2013-08-14 05:13:00,
2013-08-14 00:18:00,46.8,44.0,30.19,ENE,74,0.0,0.0,90,0.00,,BKN,0.00,0.00,VWS V14.01,2013-08-14 05:18:00,
2013-08-14 00:23:00,46.7,43.9,30.19,ENE,74,0.0,0.0,90,0.00,,BKN,0.00,0.00,VWS V14.01,2013-08-14 05:23:00,
2013-08-14 00:28:00,46.6,43.5,30.20,ENE,74,0.0,0.0,89,0.00,,BKN,0.00,0.00,VWS V14.01,2013-08-14 05:28:00,
2013-08-14 00:33:00,46.4,43.3,30.20,ENE,74,0.0,0.0,89,0.00,,BKN,0.00,0.00,VWS V14.01,2013-08-14 05:33:00,
2013-08-14 00:38:00,46.2,43.1,30.20,ENE,74,0.0,0.0,89,0.00,,BKN,0.00,0.00,VWS V14.01,2013-08-14 05:38:00,
2013-08-14 00:44:00,46.0,43.0,30.19,ENE,74,0.0,0.0,89,0.00,,BKN,0.00,0.00,VWS V14.01,2013-08-14 05:44:00,
2013-08-14 00:49:00,45.9,42.8,30.19,ENE,74,0.0,0.0,89,0.00,,BKN,0.00,0.00,VWS V14.01,2013-08-14 05:49:00,
2013-08-14 00:54:00,45.7,42.7,30.19,ENE,74,0.0,0.0,89,0.00,,BKN,0.00,0.00,VWS V14.01,2013-08-14 05:54:00,
2013-08-14 00:59:00,45.5,42.5,30.20,ENE,74,0.0,0.0,89,0.00,,BKN,0.00,0.00,VWS V14.01,2013-08-14 05:59:00,
2013-08-14 01:04:00,45.5,42.7,30.19,ENE,74,0.0,0.0,90,0.00,,BKN,0.00,0.00,VWS V14.01,2013-08-14 06:04:00,
2013-08-14 01:09:00,45.5,42.7,30.20,ENE,74,0.0,0.0,90,0.00,,BKN,0.00,0.00,VWS V14.01,2013-08-14 06:09:00,
2013-08-14 01:14:00,45.5,42.7,30.20,ENE,74,0.0,0.0,90,0.00,,BKN,0.00,0.00,VWS V14.01,2013-08-14 06:14:00,
2013-08-14 01:19:00,45.5,42.7,30.20,ENE,74,0.0,0.0,90,0.00,,BKN,0.00,0.00,VWS V14.01,2013-08-14 06:19:00,
2013-08-14 01:24:00,45.5,42.7,30.20,ENE,74,0.0,0.0,90,0.00,,BKN,0.00,0.00,VWS V14.01,2013-08-14 06:24:00,
2013-08-14 01:29:00,45.5,42.7,30.20,ENE,74,0.0,0.0,90,0.00,,BKN,0.00,0.00,VWS V14.01,2013-08-14 06:29:00,
2013-08-14 01:34:00,45.4,42.6,30.20,ENE,74,0.0,0.0,90,0.00,,BKN,0.00,0.00,VWS V14.01,2013-08-14 06:34:00,
2013-08-14 01:39:00,45.4,42.6,30.20,ENE,74,0.0,0.0,90,0.00,,BKN,0.00,0.00,VWS V14.01,2013-08-14 06:39:00,
2013-08-14 01:44:00,45.3,42.5,30.20,ENE,74,0.0,0.0,90,0.00,,BKN,0.00,0.00,VWS V14.01,2013-08-14 06:44:00,
2013-08-14 01:49:00,45.2,42.5,30.20,ENE,74,0.0,0.0,90,0.00,,BKN,0.00,0.00,VWS V14.01,2013-08-14 06:49:00,
2013-08-14 01:54:00,45.0,42.2,30.20,ENE,74,0.0,0.0,90,0.00,,BKN,0.00,0.00,VWS V14.01,2013-08-14 06:54:00,
2013-08-14 02:00:00,44.7,42.0,30.20,ENE,74,0.0,0.0,90,0.00,,BKN,0.00,0.00,VWS V14.01,2013-08-14 07:00:00,
2013-08-14 02:05:00,44.5,41.8,30.20,ENE,74,0.0,0.0,90,0.00,,BKN,0.00,0.00,VWS V14.01,2013-08-14 07:05:00,
2013-08-14 02:10:00,44.5,41.8,30.20,ENE,74,0.0,0.0,90,0.00,,BKN,0.00,0.00,VWS V14.01,2013-08-14 07:10:00,
2013-08-14 02:15:00,44.5,41.8,30.20,ENE,74,0.0,0.0,90,0.00,,BKN,0.00,0.00,VWS V14.01,2013-08-14 07:15:00,
2013-08-14 02:20:00,44.4,41.7,30.20,ENE,74,0.0,0.0,90,0.00,,BKN,0.00,0.00,VWS V14.01,2013-08-14 07:20:00,
2013-08-14 02:25:00,44.4,41.7,30.20,ENE,74,0.0,0.0,90,0.00,,BKN,0.00,0.00,VWS V14.01,2013-08-14 07:25:00,
2013-08-14 02:30:00,44.4,41.7,30.20,ENE,74,0.0,0.0,90,0.00,,BKN,0.00,0.00,VWS V14.01,2013-08-14 07:30:00,
2013-08-14 02:35:00,44.3,41.6,30.20,ENE,74,0.0,0.0,90,0.00,,BKN,0.00,0.00,VWS V14.01,2013-08-14 07:35:00,
2013-08-14 02:40:00,44.3,41.6,30.20,ENE,74,0.0,0.0,90,0.00,,BKN,0.00,0.00,VWS V14.01,2013-08-14 07:40:00,
2013-08-14 02:45:00,44.2,41.7,30.20,ENE,74,0.0,0.0,91,0.00,,BKN,0.00,0.00,VWS V14.01,2013-08-14 07:45:00,
2013-08-14 02:50:00,44.2,41.7,30.20,ENE,74,0.0,0.0,91,0.00,,BKN,0.00,0.00,VWS V14.01,2013-08-14 07:50:00,
2013-08-14 02:55:00,44.1,41.7,30.20,ENE,74,0.0,0.0,91,0.00,,BKN,0.00,0.00,VWS V14.01,2013-08-14 07:55:00,
2013-08-14 03:00:00,44.1,41.7,30.20,ENE,74,0.0,0.0,91,0.00,,BKN,0.00,0.00,VWS V14.01,2013-08-14 08:00:00,
2013-08-14 03:05:00,44.0,41.5,30.20,ENE,74,0.0,0.0,91,0.00,,BKN,0.00,0.00,VWS V14.01,2013-08-14 08:05:00,
2013-08-14 03:10:00,44.0,41.5,30.20,ENE,74,0.0,0.0,91,0.00,,BKN,0.00,0.00,VWS V14.01,2013-08-14 08:10:00,
2013-08-14 03:15:00,43.9,41.5,30.20,ENE,74,0.0,0.0,91,0.00,,BKN,0.00,0.00,VWS V14.01,2013-08-14 08:15:00,
2013-08-14 03:20:00,43.8,41.3,30.20,ENE,74,0.0,0.0,91,0.00,,BKN,0.00,0.00,VWS V14.01,2013-08-14 08:20:00,
2013-08-14 03:25:00,43.9,41.5,30.20,ENE,74,0.0,0.0,91,0.00,,BKN,0.00,0.00,VWS V14.01,2013-08-14 08:25:00,
2013-08-14 03:31:00,43.9,41.5,30.20,ENE,74,0.0,0.0,91,0.00,,BKN,0.00,0.00,VWS V14.01,2013-08-14 08:31:00,
2013-08-14 03:36:00,43.8,41.3,30.20,ENE,74,0.0,0.0,91,0.00,,BKN,0.00,0.00,VWS V14.01,2013-08-14 08:36:00,
2013-08-14 03:41:00,43.8,41.3,30.20,ENE,74,0.0,0.0,91,0.00,,BKN,0.00,0.00,VWS V14.01,2013-08-14 08:41:00,
2013-08-14 03:46:00,43.8,41.3,30.20,ENE,74,0.0,0.0,91,0.00,,BKN,0.00,0.00,VWS V14.01,2013-08-14 08:46:00,
2013-08-14 03:51:00,43.8,41.3,30.20,ENE,74,0.0,0.0,91,0.00,,BKN,0.00,0.00,VWS V14.01,2013-08-14 08:51:00,
2013-08-14 03:56:00,43.8,41.3,30.19,ENE,74,0.0,0.0,91,0.00,,BKN,0.00,0.00,VWS V14.01,2013-08-14 08:56:00,
2013-08-14 04:01:00,43.9,41.5,30.20,ENE,74,0.0,0.0,91,0.00,,BKN,0.00,0.00,VWS V14.01,2013-08-14 09:01:00,
2013-08-14 04:06:00,44.0,41.5,30.20,ENE,74,0.0,0.0,91,0.00,,BKN,0.00,0.00,VWS V14.01,2013-08-14 09:06:00,
2013-08-14 04:11:00,44.0,41.8,30.20,ENE,74,0.0,0.0,92,0.00,,BKN,0.00,0.00,VWS V14.01,2013-08-14 09:11:00,
2013-08-14 04:16:00,44.2,42.0,30.20,ENE,74,0.0,0.0,92,0.00,,BKN,0.00,0.00,VWS V14.01,2013-08-14 09:16:00,
2013-08-14 04:21:00,44.4,42.2,30.20,ENE,74,0.0,0.0,92,0.00,,BKN,0.00,0.00,VWS V14.01,2013-08-14 09:21:00,
2013-08-14 04:26:00,44.5,42.3,30.20,ENE,74,0.0,0.0,92,0.00,,BKN,0.00,0.00,VWS V14.01,2013-08-14 09:26:00,
2013-08-14 04:31:00,44.6,42.4,30.20,ENE,74,0.0,0.0,92,0.00,,BKN,0.00,0.00,VWS V14.01,2013-08-14 09:31:00,
2013-08-14 04:36:00,44.7,42.5,30.20,ENE,74,0.0,0.0,92,0.00,,BKN,0.00,0.00,VWS V14.01,2013-08-14 09:36:00,
2013-08-14 04:41:00,44.9,42.7,30.20,ENE,74,0.0,0.0,92,0.00,,BKN,0.00,0.00,VWS V14.01,2013-08-14 09:41:00,
2013-08-14 04:46:00,45.0,42.8,30.20,ENE,74,0.0,0.0,92,0.00,,BKN,0.00,0.00,VWS V14.01,2013-08-14 09:46:00,
2013-08-14 04:51:00,45.2,43.0,30.21,ENE,74,0.0,0.0,92,0.00,,BKN,0.00,0.00,VWS V14.01,2013-08-14 09:51:00,
2013-08-14 04:56:00,45.3,43.1,30.21,ENE,74,0.0,0.0,92,0.00,,BKN,0.00,0.00,VWS V14.01,2013-08-14 09:56:00,
2013-08-14 05:01:00,45.4,43.2,30.21,ENE,74,0.0,0.0,92,0.00,,BKN,0.00,0.00,VWS V14.01,2013-08-14 10:01:00,
2013-08-14 05:06:00,45.5,43.3,30.21,ENE,74,0.0,0.0,92,0.00,,BKN,0.00,0.00,VWS V14.01,2013-08-14 10:06:00,
2013-08-14 05:11:00,45.6,43.4,30.21,ENE,74,0.0,0.0,92,0.00,,BKN,0.00,0.00,VWS V14.01,2013-08-14 10:11:00,
2013-08-14 05:16:00,45.6,43.4,30.21,ENE,74,0.0,0.0,92,0.00,,BKN,0.00,0.00,VWS V14.01,2013-08-14 10:16:00,
2013-08-14 05:21:00,45.7,43.5,30.21,ENE,74,0.0,0.0,92,0.00,,BKN,0.00,0.00,VWS V14.01,2013-08-14 10:21:00,
2013-08-14 05:26:00,45.8,43.6,30.21,ENE,74,0.0,0.0,92,0.00,,BKN,0.00,0.00,VWS V14.01,2013-08-14 10:26:00,
2013-08-14 05:31:00,45.9,43.7,30.21,East,93,0.0,2.0,92,0.00,,BKN,0.00,0.00,VWS V14.01,2013-08-14 10:31:00,
2013-08-14 05:37:00,45.9,43.7,30.21,SSW,205,3.0,3.0,92,0.00,,BKN,0.00,0.00,VWS V14.01,2013-08-14 10:37:00,
2013-08-14 05:42:00,45.9,43.7,30.21,SSW,205,0.0,1.0,92,0.00,,BKN,0.00,0.00,VWS V14.01,2013-08-14 10:42:00,
2013-08-14 05:47:00,45.9,43.7,30.21,SSW,207,0.0,0.0,92,0.00,,BKN,0.00,0.00,VWS V14.01,2013-08-14 10:47:00,
2013-08-14 05:52:00,45.9,43.7,30.22,SSW,207,0.0,0.0,92,0.00,,BKN,0.00,0.00,VWS V14.01,2013-08-14 10:52:00,
2013-08-14 05:57:00,45.9,43.7,30.21,SSW,207,2.0,2.0,92,0.00,,BKN,0.00,0.00,VWS V14.01,2013-08-14 10:57:00,
2013-08-14 06:02:00,46.0,43.8,30.22,SSW,207,2.0,3.0,92,0.00,,BKN,0.00,0.00,VWS V14.01,2013-08-14 11:02:00,
2013-08-14 06:07:00,46.5,44.6,30.22,SSW,207,0.0,1.0,93,0.00,,BKN,0.00,0.00,VWS V14.01,2013-08-14 11:07:00,
2013-08-14 06:12:00,46.9,45.0,30.22,SSW,207,0.0,0.0,93,0.00,,BKN,0.00,5.00,VWS V14.01,2013-08-14 11:12:00,
2013-08-14 06:17:00,47.3,45.4,30.22,SSW,207,0.0,0.0,93,0.00,,BKN,0.00,7.00,VWS V14.01,2013-08-14 11:17:00,
2013-08-14 06:22:00,47.3,45.4,30.22,SSW,207,2.0,3.0,93,0.00,,BKN,0.00,9.00,VWS V14.01,2013-08-14 11:22:00,
2013-08-14 06:27:00,47.3,45.4,30.22,SSW,207,0.0,1.0,93,0.00,,BKN,0.00,11.00,VWS V14.01,2013-08-14 11:27:00,
2013-08-14 06:32:00,47.4,45.5,30.22,SSW,207,0.0,0.0,93,0.00,,BKN,0.00,14.00,VWS V14.01,2013-08-14 11:32:00,
2013-08-14 06:37:00,47.5,45.3,30.22,SSW,207,2.0,3.0,92,0.00,,BKN,0.00,16.00,VWS V14.01,2013-08-14 11:37:00,
2013-08-14 06:42:00,47.3,45.1,30.22,SSW,207,3.0,3.0,92,0.00,,BKN,0.00,18.00,VWS V14.01,2013-08-14 11:42:00,
2013-08-14 06:47:00,47.3,45.1,30.22,SSW,207,0.0,0.0,92,0.00,,BKN,0.00,25.00,VWS V14.01,2013-08-14 11:47:00,
2013-08-14 06:53:00,47.3,45.1,30.22,SSW,207,1.0,2.0,92,0.00,,BKN,0.00,23.00,VWS V14.01,2013-08-14 11:53:00,
2013-08-14 06:58:00,47.4,45.2,30.22,SSW,208,3.0,3.0,92,0.00,,BKN,0.00,25.00,VWS V14.01,2013-08-14 11:58:00,
2013-08-14 07:03:00,47.5,45.3,30.22,SSW,212,3.0,3.0,92,0.00,,BKN,0.00,28.00,VWS V14.01,2013-08-14 12:03:00,
2013-08-14 07:08:00,47.6,45.4,30.22,SSW,212,0.0,0.0,92,0.00,,BKN,0.00,35.00,VWS V14.01,2013-08-14 12:08:00,
2013-08-14 07:13:00,47.6,45.4,30.22,SSW,212,0.0,0.0,92,0.00,,BKN,0.00,44.00,VWS V14.01,2013-08-14 12:13:00,
2013-08-14 07:18:00,47.5,45.3,30.22,SSW,213,0.0,0.0,92,0.00,,BKN,0.00,58.00,VWS V14.01,2013-08-14 12:18:00,
2013-08-14 07:23:00,47.4,44.9,30.22,SSW,212,0.0,0.0,91,0.00,,BKN,0.00,44.00,VWS V14.01,2013-08-14 12:23:00,
2013-08-14 07:28:00,47.3,44.8,30.22,SSW,212,0.0,0.0,91,0.00,,BKN,0.00,37.00,VWS V14.01,2013-08-14 12:28:00,
2013-08-14 07:33:00,47.4,44.9,30.22,SSW,212,0.0,0.0,91,0.00,,BKN,0.00,83.00,VWS V14.01,2013-08-14 12:33:00,
2013-08-14 07:38:00,47.5,45.0,30.22,SSW,212,0.0,0.0,91,0.00,,BKN,0.00,70.00,VWS V14.01,2013-08-14 12:38:00,
2013-08-14 07:43:00,47.6,45.4,30.22,SSW,212,0.0,0.0,92,0.00,,BKN,0.00,30.00,VWS V14.01,2013-08-14 12:43:00,
2013-08-14 07:48:00,47.7,45.5,30.21,SSW,213,0.0,0.0,92,0.00,,BKN,0.00,35.00,VWS V14.01,2013-08-14 12:48:00,
2013-08-14 07:53:00,47.8,45.6,30.21,SSW,212,0.0,0.0,92,0.00,,BKN,0.00,63.00,VWS V14.01,2013-08-14 12:53:00,
2013-08-14 07:58:00,48.0,45.8,30.22,SSW,212,0.0,0.0,92,0.00,,BKN,0.00,142.00,VWS V14.01,2013-08-14 12:58:00,
2013-08-14 08:03:00,48.2,46.0,30.21,SSW,212,0.0,0.0,92,0.00,,BKN,0.00,79.00,VWS V14.01,2013-08-14 13:03:00,
2013-08-14 08:08:00,48.4,46.2,30.21,SSW,212,0.0,0.0,92,0.00,,BKN,0.00,47.00,VWS V14.01,2013-08-14 13:08:00,
2013-08-14 08:13:00,48.7,46.5,30.21,SSW,212,0.0,0.0,92,0.00,,BKN,0.00,65.00,VWS V14.01,2013-08-14 13:13:00,
2013-08-14 08:18:00,49.2,47.0,30.21,SSW,212,0.0,0.0,92,0.00,,BKN,0.00,88.00,VWS V14.01,2013-08-14 13:18:00,
2013-08-14 08:25:00,49.6,47.4,30.21,North,0,0.0,0.0,92,1.96,,SCT,0.00,86.00,VWS V14.01,2013-08-14 13:25:00,
2013-08-14 08:35:00,50.1,47.9,30.21,SSW,212,0.0,0.0,92,0.00,,SCT,0.00,100.00,VWS V14.01,2013-08-14 13:35:00,
2013-08-14 08:44:00,50.6,48.4,30.21,SSW,212,0.0,0.0,92,0.00,,SCT,0.00,65.00,VWS V14.01,2013-08-14 13:44:00,
2013-08-14 08:49:00,50.9,48.7,30.21,SSW,212,0.0,0.0,92,0.00,,SCT,0.00,93.00,VWS V14.01,2013-08-14 13:49:00,
2013-08-14 08:54:00,51.3,49.1,30.21,SSW,212,0.0,0.0,92,0.00,,SCT,0.00,345.00,VWS V14.01,2013-08-14 13:54:00,
2013-08-14 08:59:00,51.8,49.5,30.21,SSW,212,0.0,0.0,92,0.00,,SCT,0.00,410.00,VWS V14.01,2013-08-14 13:59:00,
2013-08-14 09:04:00,52.2,49.7,30.21,SSW,212,0.0,0.0,91,0.00,,SCT,0.00,431.00,VWS V14.01,2013-08-14 14:04:00,
2013-08-14 09:09:00,53.0,50.2,30.21,SSW,212,0.0,0.0,90,0.00,,SCT,0.00,459.00,VWS V14.01,2013-08-14 14:09:00,
2013-08-14 09:14:00,53.9,50.7,30.21,SSW,212,0.0,0.0,89,0.00,,SCT,0.00,387.00,VWS V14.01,2013-08-14 14:14:00,
2013-08-14 09:19:00,54.7,50.6,30.20,SSW,212,0.0,0.0,86,0.00,,SCT,0.00,494.00,VWS V14.01,2013-08-14 14:19:00,
2013-08-14 09:24:00,55.4,50.3,30.20,SSW,212,0.0,0.0,83,0.00,,SCT,0.00,512.00,VWS V14.01,2013-08-14 14:24:00,
2013-08-14 09:29:00,56.4,51.0,30.20,SSW,212,0.0,0.0,82,0.00,,SCT,0.00,527.00,VWS V14.01,2013-08-14 14:29:00,
2013-08-14 09:34:00,57.2,50.8,30.20,SSW,213,0.0,0.0,79,0.00,,SCT,0.00,541.00,VWS V14.01,2013-08-14 14:34:00,
2013-08-14 09:39:00,58.0,51.2,30.20,SSW,212,0.0,0.0,78,0.00,,SCT,0.00,557.00,VWS V14.01,2013-08-14 14:39:00,
2013-08-14 09:44:00,59.0,51.8,30.20,NNW,329,0.0,0.0,77,0.00,,SCT,0.00,570.00,VWS V14.01,2013-08-14 14:44:00,
2013-08-14 09:49:00,59.6,51.3,30.20,West,269,0.0,1.0,74,0.00,,SCT,0.00,587.00,VWS V14.01,2013-08-14 14:49:00,
2013-08-14 09:55:00,60.5,51.8,30.20,NNW,348,1.0,5.0,73,0.00,,SCT,0.00,598.00,VWS V14.01,2013-08-14 14:55:00,
2013-08-14 10:00:00,61.1,51.2,30.19,West,268,0.0,7.0,70,0.00,,SCT,0.00,628.00,VWS V14.01,2013-08-14 15:00:00,
2013-08-14 10:05:00,61.5,51.6,30.20,NNW,331,0.0,0.0,70,0.00,,SCT,0.00,659.00,VWS V14.01,2013-08-14 15:05:00,
2013-08-14 10:10:00,62.0,51.7,30.20,WSW,249,0.0,1.0,69,0.00,,SCT,0.00,680.00,VWS V14.01,2013-08-14 15:10:00,
2013-08-14 10:15:00,62.4,52.1,30.20,West,264,6.0,7.0,69,0.00,,SCT,0.00,642.00,VWS V14.01,2013-08-14 15:15:00,
2013-08-14 10:20:00,62.5,52.2,30.20,WNW,287,1.0,6.0,69,0.00,,SCT,0.00,775.00,VWS V14.01,2013-08-14 15:20:00,
2013-08-14 10:25:00,62.3,51.6,30.20,West,277,0.0,5.0,68,0.00,,SCT,0.00,779.00,VWS V14.01,2013-08-14 15:25:00,
2013-08-14 10:30:00,62.2,51.1,30.20,NW,325,0.0,7.0,67,0.00,,SCT,0.00,193.00,VWS V14.01,2013-08-14 15:30:00,
2013-08-14 10:35:00,62.1,51.4,30.20,North,351,0.0,5.0,68,0.00,,SCT,0.00,243.00,VWS V14.01,2013-08-14 15:35:00,
2013-08-14 10:40:00,62.0,51.3,30.19,North,351,0.0,0.0,68,0.00,,SCT,0.00,227.00,VWS V14.01,2013-08-14 15:40:00,
2013-08-14 10:45:00,62.2,51.9,30.20,SW,232,1.0,5.0,69,0.00,,SCT,0.00,930.00,VWS V14.01,2013-08-14 15:45:00,
2013-08-14 10:50:00,62.3,51.6,30.19,North,9,0.0,6.0,68,0.00,,SCT,0.00,241.00,VWS V14.01,2013-08-14 15:50:00,
2013-08-14 10:56:00,62.6,51.1,30.19,WSW,253,7.0,7.0,66,0.00,,SCT,0.00,241.00,VWS V14.01,2013-08-14 15:56:00,
2013-08-14 11:01:00,62.9,51.8,30.19,West,267,3.0,8.0,67,0.00,,SCT,0.00,944.00,VWS V14.01,2013-08-14 16:01:00,
2013-08-14 11:06:00,62.9,50.5,30.19,WSW,257,0.0,7.0,64,0.00,,SCT,0.00,116.00,VWS V14.01,2013-08-14 16:06:00,
2013-08-14 11:11:00,62.8,50.9,30.19,WNW,290,0.0,4.0,65,0.00,,SCT,0.00,116.00,VWS V14.01,2013-08-14 16:11:00,
2013-08-14 11:16:00,63.1,50.7,30.19,West,273,0.0,4.0,64,0.00,,SCT,0.00,881.00,VWS V14.01,2013-08-14 16:16:00,
2013-08-14 11:21:00,63.6,49.5,30.19,North,5,4.0,4.0,60,0.00,,SCT,0.00,838.00,VWS V14.01,2013-08-14 16:21:00,
2013-08-14 11:26:00,63.8,49.7,30.19,NNW,332,0.0,8.0,60,0.00,,SCT,0.00,517.00,VWS V14.01,2013-08-14 16:26:00,
2013-08-14 11:31:00,63.8,50.1,30.19,West,281,0.0,7.0,61,0.00,,SCT,0.00,218.00,VWS V14.01,2013-08-14 16:31:00,
2013-08-14 11:36:00,63.9,49.8,30.19,NNW,344,7.0,9.0,60,0.00,,SCT,0.00,889.00,VWS V14.01,2013-08-14 16:36:00,
2013-08-14 11:41:00,64.3,50.6,30.18,NE,36,0.0,7.0,61,0.00,,SCT,0.00,889.00,VWS V14.01,2013-08-14 16:41:00,
2013-08-14 11:46:00,64.7,50.1,30.19,NNW,347,0.0,0.0,59,0.00,,SCT,0.00,944.00,VWS V14.01,2013-08-14 16:46:00,
2013-08-14 11:52:00,65.0,50.8,30.19,NNE,18,4.0,8.0,60,0.00,,SCT,0.00,965.00,VWS V14.01,2013-08-14 16:52:00,
2013-08-14 11:58:00,65.1,50.0,30.19,NW,317,0.0,4.0,58,0.00,,SCT,0.00,889.00,VWS V14.01,2013-08-14 16:58:00,
2013-08-14 12:04:00,65.2,49.6,30.19,NNW,331,0.0,3.0,57,0.00,,SCT,0.00,958.00,VWS V14.01,2013-08-14 17:04:00,
2013-08-14 12:09:00,65.4,49.8,30.19,NNE,22,0.0,10.0,57,0.00,,SCT,0.00,921.00,VWS V14.01,2013-08-14 17:09:00,
2013-08-14 12:14:00,65.5,49.4,30.19,North,5,3.0,8.0,56,0.00,,SCT,0.00,900.00,VWS V14.01,2013-08-14 17:14:00,
2013-08-14 12:19:00,65.9,49.3,30.19,NNW,332,0.0,15.0,55,0.00,,SCT,0.00,937.00,VWS V14.01,2013-08-14 17:19:00,
2013-08-14 12:25:00,66.1,49.0,30.19,NE,36,2.0,8.0,54,0.00,,SCT,0.00,986.00,VWS V14.01,2013-08-14 17:25:00,
2013-08-14 12:30:00,66.3,49.7,30.18,NW,325,0.0,12.0,55,0.00,,SCT,0.00,717.00,VWS V14.01,2013-08-14 17:30:00,
2013-08-14 12:35:00,66.8,50.6,30.18,North,355,3.0,4.0,56,0.00,,SCT,0.00,935.00,VWS V14.01,2013-08-14 17:35:00,
2013-08-14 12:40:00,67.0,48.8,30.18,NNE,24,0.0,5.0,52,0.00,,SCT,0.00,1046.00,VWS V14.01,2013-08-14 17:40:00,
2013-08-14 12:45:00,67.1,49.4,30.18,NNW,330,0.0,5.0,53,0.00,,SCT,0.00,227.00,VWS V14.01,2013-08-14 17:45:00,
2013-08-14 12:51:00,66.7,49.0,30.18,West,271,0.0,4.0,53,0.00,,SCT,0.00,299.00,VWS V14.01,2013-08-14 17:51:00,
2013-08-14 12:56:00,66.6,50.0,30.18,West,263,0.0,6.0,55,0.00,,SCT,0.00,1000.00,VWS V14.01,2013-08-14 17:56:00,
2013-08-14 13:01:00,67.0,50.8,30.18,NNW,333,0.0,7.0,56,0.00,,SCT,0.00,1028.00,VWS V14.01,2013-08-14 18:01:00,
2013-08-14 13:06:00,67.1,49.9,30.18,NW,316,3.0,6.0,54,0.00,,SCT,0.00,299.00,VWS V14.01,2013-08-14 18:06:00,
2013-08-14 13:12:00,66.8,48.6,30.18,North,355,7.0,7.0,52,0.00,,SCT,0.00,350.00,VWS V14.01,2013-08-14 18:12:00,
2013-08-14 13:17:00,66.3,50.2,30.18,WNW,301,0.0,0.0,56,0.00,,SCT,0.00,265.00,VWS V14.01,2013-08-14 18:17:00,
2013-08-14 13:22:00,66.1,48.5,30.17,WNW,284,0.0,2.0,53,0.00,,SCT,0.00,494.00,VWS V14.01,2013-08-14 18:22:00,
2013-08-14 13:28:00,66.1,48.5,30.17,NW,311,3.0,3.0,53,0.00,,SCT,0.00,1107.00,VWS V14.01,2013-08-14 18:28:00,
2013-08-14 13:33:00,66.4,48.8,30.17,West,279,5.0,13.0,53,0.00,,SCT,0.00,374.00,VWS V14.01,2013-08-14 18:33:00,
2013-08-14 13:38:00,66.5,49.4,30.17,NW,313,0.0,5.0,54,0.00,,SCT,0.00,292.00,VWS V14.01,2013-08-14 18:38:00,
2013-08-14 13:43:00,66.6,49.0,30.17,West,281,0.0,1.0,53,0.00,,SCT,0.00,1099.00,VWS V14.01,2013-08-14 18:43:00,
2013-08-14 13:48:00,66.5,49.8,30.17,WNW,289,0.0,0.0,55,0.00,,SCT,0.00,385.00,VWS V14.01,2013-08-14 18:48:00,
2013-08-14 13:53:00,66.4,49.3,30.17,WNW,288,3.0,3.0,54,0.00,,SCT,0.00,287.00,VWS V14.01,2013-08-14 18:53:00,
2013-08-14 13:58:00,66.4,48.8,30.17,North,9,0.0,0.0,53,0.00,,SCT,0.00,316.00,VWS V14.01,2013-08-14 18:58:00,
2013-08-14 14:04:00,66.6,49.0,30.17,NW,317,1.0,6.0,53,0.00,,SCT,0.00,206.00,VWS V14.01,2013-08-14 19:04:00,
2013-08-14 14:12:00,67.0,49.3,30.16,NW,308,1.0,9.0,53,0.00,,SCT,0.00,1028.00,VWS V14.01,2013-08-14 19:12:00,
2013-08-14 14:18:00,67.3,51.1,30.16,West,261,4.0,10.0,56,0.00,,SCT,0.00,1009.00,VWS V14.01,2013-08-14 19:18:00,
2013-08-14 14:24:00,67.4,49.2,30.16,WSW,242,0.0,5.0,52,0.00,,SCT,0.00,1021.00,VWS V14.01,2013-08-14 19:24:00,
2013-08-14 14:29:00,67.3,48.0,30.16,West,280,2.0,7.0,50,0.00,,SCT,0.00,276.00,VWS V14.01,2013-08-14 19:29:00,
2013-08-14 14:35:00,67.0,49.3,30.16,North,351,0.0,5.0,53,0.00,,SCT,0.00,374.00,VWS V14.01,2013-08-14 19:35:00,
2013-08-14 14:40:00,66.7,48.5,30.16,West,269,0.0,4.0,52,0.00,,SCT,0.00,288.00,VWS V14.01,2013-08-14 19:40:00,
2013-08-14 14:46:00,66.9,48.7,30.15,West,276,0.0,4.0,52,0.00,,SCT,0.00,902.00,VWS V14.01,2013-08-14 19:46:00,
2013-08-14 14:51:00,67.3,48.6,30.15,West,264,1.0,10.0,51,0.00,,SCT,0.00,974.00,VWS V14.01,2013-08-14 19:51:00,
2013-08-14 14:56:00,67.5,49.8,30.15,NNW,346,0.0,9.0,53,0.00,,SCT,0.00,174.00,VWS V14.01,2013-08-14 19:56:00,
2013-08-14 15:01:00,67.4,50.2,30.15,NW,310,0.0,5.0,54,0.00,,SCT,0.00,269.00,VWS V14.01,2013-08-14 20:01:00,
2013-08-14 15:06:00,67.4,48.7,30.15,WNW,301,0.0,0.0,51,0.00,,SCT,0.00,960.00,VWS V14.01,2013-08-14 20:06:00,
2013-08-14 15:11:00,67.7,49.5,30.14,WNW,283,3.0,3.0,52,0.00,,SCT,0.00,847.00,VWS V14.01,2013-08-14 20:11:00,
2013-08-14 15:16:00,67.9,50.7,30.14,West,276,0.0,3.0,54,0.00,,SCT,0.00,842.00,VWS V14.01,2013-08-14 20:16:00,
2013-08-14 15:22:00,68.1,49.8,30.14,West,277,2.0,3.0,52,0.00,,SCT,0.00,858.00,VWS V14.01,2013-08-14 20:22:00,
2013-08-14 15:27:00,68.4,50.6,30.14,NW,305,1.0,5.0,53,0.00,,SCT,0.00,905.00,VWS V14.01,2013-08-14 20:27:00,
2013-08-14 15:33:00,68.9,50.0,30.14,NW,304,0.0,8.0,51,0.00,,SCT,0.00,230.00,VWS V14.01,2013-08-14 20:33:00,
2013-08-14 15:38:00,68.9,50.0,30.14,NE,40,0.0,1.0,51,0.00,,SCT,0.00,186.00,VWS V14.01,2013-08-14 20:38:00,
2013-08-14 15:43:00,68.6,50.3,30.14,NNW,343,0.0,0.0,52,0.00,,SCT,0.00,200.00,VWS V14.01,2013-08-14 20:43:00,
2013-08-14 15:48:00,68.6,50.8,30.14,NNE,23,0.0,9.0,53,0.00,,SCT,0.00,751.00,VWS V14.01,2013-08-14 20:48:00,
2013-08-14 15:53:00,68.7,49.3,30.14,NW,318,0.0,0.0,50,0.00,,SCT,0.00,742.00,VWS V14.01,2013-08-14 20:53:00,
2013-08-14 15:58:00,69.0,50.1,30.14,West,279,0.0,5.0,51,0.00,,SCT,0.00,731.00,VWS V14.01,2013-08-14 20:58:00,
2013-08-14 16:04:00,69.1,48.6,30.14,West,274,0.0,3.0,48,0.00,,SCT,0.00,719.00,VWS V14.01,2013-08-14 21:04:00,
2013-08-14 16:09:00,69.3,50.9,30.14,WNW,282,0.0,4.0,52,0.00,,SCT,0.00,715.00,VWS V14.01,2013-08-14 21:09:00,
2013-08-14 16:14:00,69.4,49.4,30.14,WNW,295,4.0,4.0,49,0.00,,SCT,0.00,719.00,VWS V14.01,2013-08-14 21:14:00,
2013-08-14 16:19:00,69.5,52.2,30.14,NW,305,0.0,7.0,54,0.00,,SCT,0.00,715.00,VWS V14.01,2013-08-14 21:19:00,
2013-08-14 16:24:00,69.7,49.2,30.14,West,279,3.0,4.0,48,0.00,,SCT,0.00,705.00,VWS V14.01,2013-08-14 21:24:00,
2013-08-14 16:29:00,69.8,49.2,30.13,WNW,296,0.0,6.0,48,0.00,,SCT,0.00,670.00,VWS V14.01,2013-08-14 21:29:00,
2013-08-14 16:35:00,69.9,49.9,30.13,NNE,20,0.0,5.0,49,0.00,,SCT,0.00,652.00,VWS V14.01,2013-08-14 21:35:00,
2013-08-14 16:40:00,70.1,50.1,30.13,ENE,61,0.0,2.0,49,0.00,,SCT,0.00,640.00,VWS V14.01,2013-08-14 21:40:00,
2013-08-14 16:45:00,70.3,50.3,30.13,NNW,337,0.0,8.0,49,0.00,,SCT,0.00,612.00,VWS V14.01,2013-08-14 21:45:00,
2013-08-14 16:50:00,70.5,52.0,30.12,NE,47,2.0,3.0,52,0.00,,SCT,0.00,606.00,VWS V14.01,2013-08-14 21:50:00,
2013-08-14 16:55:00,70.8,50.7,30.12,SE,144,1.0,1.0,49,0.00,,SCT,0.00,573.00,VWS V14.01,2013-08-14 21:55:00,
2013-08-14 17:01:00,71.0,51.5,30.12,NE,40,0.0,4.0,50,0.00,,SCT,0.00,612.00,VWS V14.01,2013-08-14 22:01:00,
2013-08-14 17:06:00,71.1,51.0,30.12,WNW,298,0.0,0.0,49,0.00,,SCT,0.00,591.00,VWS V14.01,2013-08-14 22:06:00,
2013-08-14 17:11:00,71.2,51.6,30.12,WNW,298,0.0,0.0,50,0.00,,SCT,0.00,594.00,VWS V14.01,2013-08-14 22:11:00,
2013-08-14 17:16:00,71.2,51.6,30.12,NNE,19,0.0,0.0,50,0.00,,SCT,0.00,594.00,VWS V14.01,2013-08-14 22:16:00,
2013-08-14 17:22:00,71.2,51.6,30.12,WSW,252,2.0,2.0,50,0.00,,SCT,0.00,559.00,VWS V14.01,2013-08-14 22:22:00,
2013-08-14 17:27:00,71.0,51.5,30.12,NW,315,0.0,0.0,50,0.00,,SCT,0.00,552.00,VWS V14.01,2013-08-14 22:27:00,
2013-08-14 17:33:00,70.8,50.7,30.12,WNW,286,0.0,2.0,49,0.00,,SCT,0.00,524.00,VWS V14.01,2013-08-14 22:33:00,
2013-08-14 17:38:00,70.8,50.7,30.12,WNW,286,0.0,0.0,49,0.00,,SCT,0.00,487.00,VWS V14.01,2013-08-14 22:38:00,
2013-08-14 17:43:00,70.9,53.4,30.12,WNW,285,0.0,0.0,54,0.00,,SCT,0.00,378.00,VWS V14.01,2013-08-14 22:43:00,
2013-08-14 17:48:00,70.9,52.4,30.11,WNW,285,0.0,0.0,52,0.00,,SCT,0.00,246.00,VWS V14.01,2013-08-14 22:48:00,
2013-08-14 17:53:00,71.0,50.3,30.12,NNW,330,0.0,2.0,48,0.00,,SCT,0.00,415.00,VWS V14.01,2013-08-14 22:53:00,
2013-08-14 17:59:00,71.2,51.6,30.11,NW,319,0.0,0.0,50,0.00,,SCT,0.00,394.00,VWS V14.01,2013-08-14 22:59:00,
2013-08-14 18:05:00,71.2,52.7,30.11,West,273,0.0,5.0,52,0.00,,SCT,0.00,374.00,VWS V14.01,2013-08-14 23:05:00,
2013-08-14 18:10:00,71.1,49.9,30.11,West,262,1.0,6.0,47,0.00,,SCT,0.00,355.00,VWS V14.01,2013-08-14 23:10:00,
2013-08-14 18:15:00,71.0,50.9,30.11,WNW,291,0.0,3.0,49,0.00,,SCT,0.00,339.00,VWS V14.01,2013-08-14 23:15:00,
2013-08-14 18:21:00,70.9,50.8,30.11,WNW,289,1.0,3.0,49,0.00,,SCT,0.00,325.00,VWS V14.01,2013-08-14 23:21:00,
2013-08-14 18:26:00,70.9,54.0,30.11,WNW,290,0.0,0.0,55,0.00,,SCT,0.00,308.00,VWS V14.01,2013-08-14 23:26:00,
2013-08-14 18:31:00,70.7,53.8,30.11,WNW,290,0.0,0.0,55,0.00,,SCT,0.00,281.00,VWS V14.01,2013-08-14 23:31:00,
2013-08-14 18:36:00,70.6,53.7,30.10,WNW,290,0.0,0.0,55,0.00,,SCT,0.00,83.00,VWS V14.01,2013-08-14 23:36:00,
2013-08-14 18:41:00,70.6,53.2,30.11,WNW,290,0.0,0.0,54,0.00,,SCT,0.00,40.00,VWS V14.01,2013-08-14 23:41:00,
2013-08-14 18:46:00,70.3,52.9,30.10,WNW,290,0.0,0.0,54,0.00,,SCT,0.00,244.00,VWS V14.01,2013-08-14 23:46:00,
2013-08-14 18:51:00,70.1,52.7,30.10,WNW,290,0.0,0.0,54,0.00,,SCT,0.00,183.00,VWS V14.01,2013-08-14 23:51:00,
2013-08-14 18:56:00,69.8,52.4,30.10,WNW,290,0.0,0.0,54,0.00,,SCT,0.00,199.00,VWS V14.01,2013-08-14 23:56:00,
2013-08-14 19:01:00,69.6,53.2,30.10,WNW,290,0.0,0.0,56,0.00,,SCT,0.00,153.00,VWS V14.01,2013-08-15 00:01:00,
2013-08-14 19:07:00,69.3,53.0,30.10,WNW,290,0.0,0.0,56,0.00,,SCT,0.00,88.00,VWS V14.01,2013-08-15 00:07:00,
2013-08-14 19:12:00,68.9,53.1,30.10,WNW,290,0.0,0.0,57,0.00,,SCT,0.00,137.00,VWS V14.01,2013-08-15 00:12:00,
2013-08-14 19:17:00,68.6,52.8,30.10,WNW,290,0.0,0.0,57,0.00,,SCT,0.00,91.00,VWS V14.01,2013-08-15 00:17:00,
2013-08-14 19:22:00,68.3,53.0,30.10,WNW,290,0.0,0.0,58,0.00,,SCT,0.00,81.00,VWS V14.01,2013-08-15 00:22:00,
2013-08-14 19:27:00,68.0,53.2,30.10,WNW,290,0.0,0.0,59,0.00,,SCT,0.00,79.00,VWS V14.01,2013-08-15 00:27:00,
2013-08-14 19:32:00,67.7,53.3,30.10,WNW,290,0.0,0.0,60,0.00,,SCT,0.00,21.00,VWS V14.01,2013-08-15 00:32:00,
2013-08-14 19:37:00,67.4,53.5,30.10,WNW,290,0.0,0.0,61,0.00,,SCT,0.00,18.00,VWS V14.01,2013-08-15 00:37:00,
2013-08-14 19:42:00,67.0,54.0,30.09,WNW,290,0.0,0.0,63,0.00,,SCT,0.00,14.00,VWS V14.01,2013-08-15 00:42:00,
2013-08-14 19:47:00,66.6,54.5,30.10,WNW,290,0.0,0.0,65,0.00,,SCT,0.00,14.00,VWS V14.01,2013-08-15 00:47:00,
2013-08-14 19:52:00,66.1,54.4,30.10,WNW,290,0.0,0.0,66,0.00,,SCT,0.00,11.00,VWS V14.01,2013-08-15 00:52:00,
2013-08-14 19:57:00,65.5,54.3,30.10,WNW,290,0.0,0.0,67,0.00,,SCT,0.00,9.00,VWS V14.01,2013-08-15 00:57:00,
2013-08-14 20:02:00,64.8,54.4,30.10,WNW,290,0.0,0.0,69,0.00,,SCT,0.00,7.00,VWS V14.01,2013-08-15 01:02:00,
2013-08-14 20:07:00,64.0,54.0,30.10,WNW,290,0.0,0.0,70,0.00,,SCT,0.00,5.00,VWS V14.01,2013-08-15 01:07:00,
2013-08-14 20:12:00,63.4,53.8,30.10,WNW,290,0.0,0.0,71,0.00,,SCT,0.00,0.00,VWS V14.01,2013-08-15 01:12:00,
2013-08-14 20:17:00,62.9,53.8,30.10,WNW,290,0.0,0.0,72,0.00,,SCT,0.00,0.00,VWS V14.01,2013-08-15 01:17:00,
2013-08-14 20:22:00,62.3,53.5,30.09,WNW,290,0.0,0.0,73,0.00,,SCT,0.00,0.00,VWS V14.01,2013-08-15 01:22:00,
2013-08-14 20:27:00,61.7,53.3,30.10,WNW,290,0.0,0.0,74,0.00,,SCT,0.00,0.00,VWS V14.01,2013-08-15 01:27:00,
2013-08-14 20:33:00,61.0,53.4,30.09,WNW,290,0.0,0.0,76,0.00,,SCT,0.00,0.00,VWS V14.01,2013-08-15 01:33:00,
2013-08-14 20:38:00,60.4,52.8,30.10,WNW,290,0.0,0.0,76,0.00,,SCT,0.00,0.00,VWS V14.01,2013-08-15 01:38:00,
2013-08-14 20:43:00,59.8,52.6,30.10,WNW,290,0.0,0.0,77,0.00,,SCT,0.00,0.00,VWS V14.01,2013-08-15 01:43:00,
2013-08-14 20:48:00,59.1,51.9,30.10,WNW,290,0.0,0.0,77,0.00,,SCT,0.00,0.00,VWS V14.01,2013-08-15 01:48:00,
2013-08-14 20:53:00,59.0,52.2,30.10,WNW,290,0.0,0.0,78,0.00,,SCT,0.00,0.00,VWS V14.01,2013-08-15 01:53:00,
2013-08-14 20:58:00,58.5,52.0,30.10,WNW,290,0.0,0.0,79,0.00,,SCT,0.00,0.00,VWS V14.01,2013-08-15 01:58:00,
2013-08-14 21:03:00,58.0,51.9,30.10,WNW,290,0.0,0.0,80,0.00,,SCT,0.00,0.00,VWS V14.01,2013-08-15 02:03:00,
2013-08-14 21:08:00,57.7,51.6,30.10,WNW,290,0.0,0.0,80,0.00,,SCT,0.00,0.00,VWS V14.01,2013-08-15 02:08:00,
2013-08-14 21:13:00,57.4,51.6,30.10,WNW,290,0.0,0.0,81,0.00,,SCT,0.00,0.00,VWS V14.01,2013-08-15 02:13:00,
2013-08-14 21:18:00,57.2,51.4,30.10,WNW,290,0.0,0.0,81,0.00,,SCT,0.00,0.00,VWS V14.01,2013-08-15 02:18:00,
2013-08-14 21:23:00,57.0,51.2,30.10,WNW,290,0.0,0.0,81,0.00,,SCT,0.00,0.00,VWS V14.01,2013-08-15 02:23:00,
2013-08-14 21:28:00,56.8,51.0,30.10,WNW,290,0.0,0.0,81,0.00,,SCT,0.00,0.00,VWS V14.01,2013-08-15 02:28:00,
2013-08-14 21:34:00,56.6,50.8,30.10,WNW,290,0.0,0.0,81,0.00,,SCT,0.00,0.00,VWS V14.01,2013-08-15 02:34:00,
2013-08-14 21:39:00,56.3,50.9,30.10,WNW,290,0.0,0.0,82,0.00,,SCT,0.00,0.00,VWS V14.01,2013-08-15 02:39:00,
2013-08-14 21:44:00,56.0,50.6,30.10,WNW,290,0.0,0.0,82,0.00,,SCT,0.00,0.00,VWS V14.01,2013-08-15 02:44:00,
2013-08-14 21:49:00,55.7,50.6,30.10,WNW,290,0.0,0.0,83,0.00,,SCT,0.00,0.00,VWS V14.01,2013-08-15 02:49:00,
2013-08-14 21:54:00,55.4,50.3,30.10,WNW,290,0.0,0.0,83,0.00,,SCT,0.00,0.00,VWS V14.01,2013-08-15 02:54:00,
2013-08-14 21:59:00,55.2,50.1,30.10,WNW,290,0.0,0.0,83,0.00,,SCT,0.00,0.00,VWS V14.01,2013-08-15 02:59:00,
2013-08-14 22:04:00,55.0,49.9,30.10,WNW,290,0.0,0.0,83,0.00,,SCT,0.00,0.00,VWS V14.01,2013-08-15 03:04:00,
2013-08-14 22:09:00,54.8,50.1,30.10,WNW,290,0.0,0.0,84,0.00,,SCT,0.00,0.00,VWS V14.01,2013-08-15 03:09:00,
2013-08-14 22:14:00,54.6,49.9,30.10,WNW,290,0.0,0.0,84,0.00,,SCT,0.00,0.00,VWS V14.01,2013-08-15 03:14:00,
2013-08-14 22:19:00,54.4,49.7,30.10,WNW,290,0.0,0.0,84,0.00,,SCT,0.00,0.00,VWS V14.01,2013-08-15 03:19:00,
2013-08-14 22:24:00,54.2,49.5,30.10,WNW,290,0.0,0.0,84,0.00,,SCT,0.00,0.00,VWS V14.01,2013-08-15 03:24:00,
2013-08-14 22:29:00,53.9,49.2,30.10,WNW,290,0.0,0.0,84,0.00,,SCT,0.00,0.00,VWS V14.01,2013-08-15 03:29:00,
2013-08-14 22:34:00,53.6,48.9,30.10,WNW,290,0.0,0.0,84,0.00,,SCT,0.00,0.00,VWS V14.01,2013-08-15 03:34:00,
2013-08-14 22:39:00,53.3,48.9,30.10,WNW,290,0.0,0.0,85,0.00,,SCT,0.00,0.00,VWS V14.01,2013-08-15 03:39:00,
2013-08-14 22:44:00,53.1,48.7,30.10,WNW,290,0.0,0.0,85,0.00,,SCT,0.00,0.00,VWS V14.01,2013-08-15 03:44:00,
2013-08-14 22:50:00,52.9,48.8,30.10,WNW,290,0.0,0.0,86,0.00,,SCT,0.00,0.00,VWS V14.01,2013-08-15 03:50:00,
2013-08-14 22:55:00,52.7,48.3,30.10,WNW,290,0.0,0.0,85,0.00,,SCT,0.00,0.00,VWS V14.01,2013-08-15 03:55:00,
2013-08-14 23:00:00,52.5,48.4,30.10,WNW,290,0.0,0.0,86,0.00,,SCT,0.00,0.00,VWS V14.01,2013-08-15 04:00:00,
2013-08-14 23:01:00,52.4,48.3,30.10,WNW,290,0.0,0.0,86,0.00,,SCT,0.00,0.00,VWS V14.01,2013-08-15 04:01:00,
2013-08-14 23:03:00,52.4,48.3,30.10,WNW,290,0.0,0.0,86,0.00,,SCT,0.00,0.00,VWS V14.01,2013-08-15 04:03:00,
2013-08-14 23:06:00,52.3,48.2,30.10,WNW,290,0.0,0.0,86,0.00,,SCT,0.00,0.00,VWS V14.01,2013-08-15 04:06:00,
2013-08-14 23:11:00,52.2,48.2,30.10,WNW,290,0.0,0.0,86,0.00,,SCT,0.00,0.00,VWS V14.01,2013-08-15 04:11:00,
2013-08-14 23:16:00,52.1,48.4,30.10,WNW,290,0.0,0.0,87,0.00,,SCT,0.00,0.00,VWS V14.01,2013-08-15 04:16:00,
2013-08-14 23:21:00,52.0,48.3,30.10,WNW,290,0.0,0.0,87,0.00,,SCT,0.00,0.00,VWS V14.01,2013-08-15 04:21:00,
2013-08-14 23:26:00,51.9,48.2,30.10,WNW,290,0.0,0.0,87,0.00,,SCT,0.00,0.00,VWS V14.01,2013-08-15 04:26:00,
2013-08-14 23:31:00,51.7,48.0,30.10,WNW,290,0.0,0.0,87,0.00,,SCT,0.00,0.00,VWS V14.01,2013-08-15 04:31:00,
2013-08-14 23:36:00,51.5,47.8,30.10,WNW,290,0.0,0.0,87,0.00,,SCT,0.00,0.00,VWS V14.01,2013-08-15 04:36:00,
2013-08-14 23:41:00,51.4,47.7,30.10,WNW,290,0.0,0.0,87,0.00,,SCT,0.00,0.00,VWS V14.01,2013-08-15 04:41:00,
2013-08-14 23:46:00,51.2,47.5,30.10,WNW,290,0.0,0.0,87,0.00,,SCT,0.00,0.00,VWS V14.01,2013-08-15 04:46:00,
2013-08-14 23:51:00,51.0,47.6,30.10,WNW,290,0.0,0.0,88,0.00,,SCT,0.00,0.00,VWS V14.01,2013-08-15 04:51:00,
2013-08-14 23:56:00,50.9,47.5,30.10,WNW,290,0.0,0.0,88,0.00,,SCT,0.00,0.00,VWS V14.01,2013-08-15 04:56:00,